Location: Unspecified
(0.0000°N, 0.0000°E)
Time: 18:59:52
(UTC+00:00)

Vanguard 3 - Pass Details

Date: 25 November 2019
Orbit: 508 x 3263 km, 33.3° (Epoch: 08 December)

Event Time Altitude Azimuth Distance (km) Brightness Sun altitude
Rises 18:19:33 0° 315° (NW) 6,956 12.2 -7.6°
Reaches altitude 10° 18:25:11 10° 322° (NW) 5,642 11.7 -8.9°
Maximum altitude 18:39:32 40° 26° (NNE) 2,733 9.5 -12.3°
Enters shadow 18:47:03 15° 87° (E) 3,232 9.6 -14.0°
